Regional Weather Roundup
Issued by NWS

Home | Current Version | Previous Version | Graphics & Text | Print | Product List | Glossary On
Versions: 1 2 3 4 5 6 7 8 9 10 11 12 13 14 15 16 17 18 19 20 21 22 23 24 25 26 27 28 29 30 31 32 33 34 35 36 37 38 39 40 41 42 43 44 45 46 47 48 49 50
000
ASUS43 KDTX 031410
RWRMI
MICHIGAN HOURLY REGIONAL WEATHER ROUNDUP
NATIONAL WEATHER SERVICE DETROIT/PONTIAC MI
1000 AM EDT FRI JUL 03 2015

NOTE: "FAIR" INDICATES FEW OR NO CLOUDS BELOW 12,000 FEET WITH NO
SIGNIFICANT WEATHER AND/OR OBSTRUCTION TO VISIBILITY.

MIZ047>049-052>055-059>063-066>070-074>076-081>083-031500-
SOUTHEAST LOWER MICHIGAN

CITY           SKY/WX    TMP DP  RH WIND       PRES   REMARKS
ADRIAN         MOSUNNY   65  52  62 E8        30.00F
ALMA           MOSUNNY   64  50  60 SE5       30.03S
ANN ARBOR      MOSUNNY   64  50  60 E7        30.00F
BAD AXE        SUNNY     64  41  44 SE5       30.04S
CARO           SUNNY     62  46  54 CALM      30.02F
DETROIT CITY   MOSUNNY   65  53  65 CALM      30.01F
DETROIT        PTSUNNY   65  51  60 N6        30.01F
FLINT          MOSUNNY   66  43  43 CALM      30.02F
GROSSE ILE     MOSUNNY   64  55  72 N5        29.99F
HILLSDALE        N/A     64  53  67 E3        30.00F HAZE
HOWELL         MOSUNNY   64  51  61 CALM      30.01F

CITY           SKY/WX    TMP DP  RH WIND       PRES   REMARKS
JACKSON        PTSUNNY   66  53  63 CALM      30.00F
LAMBERTVILLE   MOSUNNY   67  56  66 E3        29.99F
LANSING        MOSUNNY   64  51  62 CALM      30.02S
LAPEER         FAIR      61  47  61 CALM      30.02F
MASON          MOSUNNY   62  52  70 E3        30.01F
MONROE         MOSUNNY   65  55  71 NE5       29.99F
MT. CLEMENS    PTSUNNY   64  52  64 E5        29.99F
PONTIAC        PTSUNNY   65  46  50 CALM      30.01S
PORT HOPE        N/A     66  43  43 SE3       30.01S
PORT HURON     SUNNY     63  52  67 CALM      30.01F
TRI CITIES     SUNNY     64  45  49 SE3       30.03S
MIDLAND        FAIR      64  49  59 CALM      30.02F
TROY           MOSUNNY   64  49  57 CALM      30.03S
SAGINAW HB     MOSUNNY   63  43  48 SE3       30.02S
$$
MIZ043>046-050>051-056>058-064>065-071>073-077>080-031500-
SOUTHWEST LOWER MICHIGAN

CITY           SKY/WX    TMP DP  RH WIND       PRES   REMARKS
BATTLE CREEK   PTSUNNY   66  54  65 NE5       30.01S
BENTON HARBOR  MOSUNNY   66  58  75 SE5       29.99S
BIG RAPIDS     MOSUNNY   63  46  54 CALM      30.01F
COLDWATER      PTSUNNY   64  53  69 E6        30.00F
FREMONT        FAIR      64  44  48 E3        30.00F
HOLLAND        PTSUNNY   66  56  70 S5        30.01S
GRAND RAPIDS   PTSUNNY   63  53  70 CALM      30.01S
IONIA          FAIR      63  53  71 SE3       30.02S
KALAMAZOO      PTSUNNY   65  55  70 VRB3      30.01S
LUDINGTON      SUNNY     66  51  58 CALM      30.00F
MARSHALL       PTSUNNY   64  54  68 MISG      30.00F
MOUNT PLEASANT SUNNY     63  51  64 SE5       30.02S
MUSKEGON       PTSUNNY   66  52  60 E3        30.01S
SOUTH HAVEN    PTSUNNY   66  57  71 SE3       29.99F
$$
MIZ016>042-031500-
NORTHERN LOWER MICHIGAN

CITY           SKY/WX    TMP DP  RH WIND       PRES   REMARKS
ALPENA         SUNNY     68  44  42 SW6       30.00S
BEAVER ISLAND  SUNNY     62  50  65 SW12      29.96F
BELLAIRE       MOSUNNY   64  49  57 S6        30.00S
CADILLAC       SUNNY     66  45  46 S7        30.01S
CHARLEVOIX     CLOUDY    64  51  62 SW7       30.01S
FRANKFORT      SUNNY     67  47  48 S5        30.00S
GAYLORD        MOSUNNY   64  48  56 SW8       30.00S
GRAYLING       SUNNY     64  48  55 CALM      30.01S
HARBOR SPRINGS CLOUDY    63  52  69 W5        29.98S
HOUGHTON LAKE  SUNNY     64  46  52 S5        30.02S
MANISTEE       SUNNY     63  48  59 S6        30.01S
OSCODA         SUNNY     67  49  52 S7        30.01S
PELLSTON       CLOUDY    65  51  60 SW6       29.97F
ROGERS CITY    MOSUNNY   66  52  59 SW10      29.99S
TRAVERSE CITY  CLOUDY    67  51  56 VRB5      29.98F
$$
MIZ007>008-015-031500-
EASTERN UPPER MICHIGAN

CITY           SKY/WX    TMP DP  RH WIND       PRES   REMARKS
KINROSS        MOSUNNY   64  54  68 SW7       29.93F
MACKINAC ISLAN SUNNY     64  52  66 SW6       29.95F
NEWBERRY       SUNNY     65  55  70 SW9       29.93R
S. S. MARIE    PTSUNNY   64  51  62 SW6       29.92F
MUNISING         N/A     68  53  58 SW10      29.90F
$$
MIZ004>006-011>014-085-031500-
CENTRAL UPPER MICHIGAN

CITY           SKY/WX    TMP DP  RH WIND       PRES   REMARKS
MANISTIQUE     SUNNY     61  55  80 SW9       29.95R
ESCANABA       SUNNY     66  50  55 W12       29.94S
MENOMINEE      SUNNY     63  50  63 W7        29.96F
SAWYER-GWINN   SUNNY     64  54  68 W13G18    29.92F
$$
MIZ001>003-009>011-084-031500-
WESTERN UPPER MICHIGAN

CITY           SKY/WX    TMP DP  RH WIND       PRES   REMARKS
IRON MOUNTAIN  SUNNY     65  52  62 W7        29.95S
HOUGHTON       PTSUNNY   65  55  70 W10       29.87S
COPPER HARBOR    N/A     62  57  83 VRB5      29.83F
IRONWOOD       PTSUNNY   64  57  77 SW8       29.90S
$$

ABBREVIATIONS USED IN REMARKS
   TC - TEMPERATURE IN CELSIUS
  WCI - WIND CHILL INDEX
   HX - HEAT INDEX
  VSB - VISIBILITY




USA.gov is the U.S. government's official web portal to all federal, state and local government web resources and services.